TimeCDT,TemperatureF,Dew PointF,Humidity,Sea Level PressureIn,VisibilityMPH,Wind Direction,Wind SpeedMPH,Gust SpeedMPH,PrecipitationIn,Events,Conditions,WindDirDegrees,DateUTC
12:53 AM,73.9,72.0,93,30.10,10.0,Calm,Calm,-,N/A,,Clear,0,2013-07-31 05:53:00
2:53 AM,75.0,72.0,90,30.09,10.0,Calm,Calm,-,N/A,,Clear,0,2013-07-31 07:53:00
3:53 AM,75.0,72.0,90,30.09,10.0,Calm,Calm,-,N/A,,Clear,0,2013-07-31 08:53:00
4:53 AM,75.0,73.0,94,30.08,9.0,Calm,Calm,-,N/A,,Clear,0,2013-07-31 09:53:00
5:53 AM,75.0,73.0,94,30.10,10.0,Calm,Calm,-,N/A,,Clear,0,2013-07-31 10:53:00
6:53 AM,75.0,73.0,94,30.11,10.0,Calm,Calm,-,N/A,,Partly Cloudy,0,2013-07-31 11:53:00
7:53 AM,79.0,75.9,90,30.12,10.0,Calm,Calm,-,N/A,,Scattered Clouds,0,2013-07-31 12:53:00
8:53 AM,82.0,75.9,82,30.13,10.0,WNW,3.5,-,N/A,,Clear,300,2013-07-31 13:53:00
9:53 AM,84.9,75.0,72,30.13,10.0,WSW,5.8,-,N/A,,Clear,240,2013-07-31 14:53:00
10:53 AM,88.0,75.0,65,30.12,10.0,Variable,5.8,-,N/A,,Scattered Clouds,0,2013-07-31 15:53:00
11:53 AM,90.0,72.0,55,30.11,10.0,WSW,6.9,17.3,N/A,,Clear,250,2013-07-31 16:53:00
12:53 PM,89.1,73.0,59,30.09,10.0,WSW,5.8,-,N/A,,Scattered Clouds,240,2013-07-31 17:53:00
1:53 PM,93.0,71.1,49,30.07,10.0,SW,9.2,-,N/A,,Partly Cloudy,230,2013-07-31 18:53:00
2:53 PM,93.9,69.1,44,30.05,10.0,Variable,5.8,-,N/A,,Clear,0,2013-07-31 19:53:00
3:53 PM,93.9,71.1,47,30.04,10.0,SSW,5.8,-,N/A,,Partly Cloudy,200,2013-07-31 20:53:00
4:53 PM,93.0,73.0,52,30.02,10.0,SW,8.1,-,N/A,,Clear,220,2013-07-31 21:53:00
5:53 PM,91.0,73.9,57,30.00,10.0,SSW,10.4,-,N/A,,Clear,200,2013-07-31 22:53:00
6:53 PM,89.1,73.9,61,29.99,10.0,SSW,9.2,-,N/A,,Clear,200,2013-07-31 23:53:00
7:53 PM,86.0,73.9,67,30.01,10.0,SSW,5.8,-,N/A,,Clear,200,2013-08-01 00:53:00
8:53 PM,82.9,73.9,74,30.01,10.0,SW,4.6,-,N/A,,Clear,220,2013-08-01 01:53:00
9:53 PM,82.0,75.0,79,30.01,10.0,SW,4.6,-,N/A,,Clear,230,2013-08-01 02:53:00
10:53 PM,81.0,75.0,82,30.03,10.0,SW,3.5,-,N/A,,Clear,220,2013-08-01 03:53:00
11:53 PM,80.1,75.0,85,30.03,10.0,Calm,Calm,-,N/A,,Clear,0,2013-08-01 04:53:00